Location: Vancouver
(49.2500°N, 123.1330°W)
Time: 23:31:55
(UTC-07:00)

ISS - Visible Passes

Search period start: 26 May 2016 00:00
Search period end: 05 June 2016 00:00
Orbit: 402 x 404 km, 51.6° (Epoch: 26 May)

Date Brightness Start Highest point End Pass type
(mag) Time Alt. Az. Time Alt. Az. Time Alt. Az.
26 May -3.5 00:08:05 64° SSW 00:08:25 72° SSE 00:11:41 10° ENE visible
26 May -2.6 01:41:45 10° W 01:44:59 54° N 01:48:12 10° ENE visible
26 May -3.2 03:18:21 10° WNW 03:21:38 78° NNE 03:24:54 10° ESE visible
26 May -3.2 23:12:35 10° SW 23:15:43 46° SSE 23:18:53 10° ENE visible
27 May -2.8 00:48:54 10° W 00:52:09 61° N 00:55:24 10° ENE visible
27 May -2.9 02:25:35 10° WNW 02:28:50 62° N 02:32:05 10° E visible
27 May -3.0 04:02:07 10° WNW 04:05:15 44° SSW 04:08:22 10° SE visible
27 May -2.5 22:20:12 10° SSW 22:23:05 29° SE 22:25:59 10° E visible
27 May -3.2 23:56:04 10° WSW 23:59:21 75° NNW 00:02:37 10° ENE visible
28 May -2.6 01:32:47 10° WNW 01:36:00 54° N 01:39:14 10° E visible
28 May -3.5 03:09:18 10° WNW 03:12:33 69° SSW 03:15:48 10° ESE visible
28 May -3.5 23:03:18 10° WSW 23:06:35 80° SSE 23:09:51 10° ENE visible
29 May -2.6 00:39:57 10° W 00:43:09 53° N 00:46:23 10° ENE visible
29 May -3.4 02:16:31 10° WNW 02:19:48 84° NNE 02:23:04 10° ESE visible
29 May -2.3 03:53:16 10° W 03:55:59 24° SW 03:58:42 10° SSE visible
29 May -3.2 22:10:39 10° SW 22:13:51 53° SSE 22:17:03 10° ENE visible
29 May -2.7 23:47:05 10° W 23:50:19 58° N 23:53:33 10° ENE visible
30 May -3.0 01:23:44 10° WNW 01:27:00 66° NNE 01:30:15 10° E visible
30 May -2.9 03:00:17 10° W 03:03:22 38° SSW 03:06:26 10° SE visible
30 May -3.0 22:54:14 10° W 22:57:30 70° NNW 23:00:46 10° ENE visible
31 May -2.7 00:30:56 10° WNW 00:34:10 56° N 00:37:24 10° E visible
31 May -3.4 02:07:26 10° WNW 02:10:40 61° SSW 02:10:52 59° S visible
31 May -3.4 22:01:25 10° WSW 22:04:42 88° SSE 22:07:59 10° ENE visible
31 May -2.5 23:38:05 10° W 23:41:19 53° N 23:44:32 10° E visible
01 Jun -3.5 01:14:39 10° WNW 01:17:56 88° SSW 01:18:38 52° ESE visible
01 Jun -2.6 22:45:13 10° W 22:48:27 56° N 22:51:41 10° ENE visible
02 Jun -3.1 00:21:52 10° WNW 00:25:08 70° NNE 00:26:59 23° E visible
02 Jun -1.4 01:58:26 10° W 01:59:33 18° W 01:59:33 18° W visible
02 Jun -2.9 21:52:21 10° W 21:55:36 66° NNW 21:58:51 10° ENE visible
02 Jun -2.8 23:29:02 10° WNW 23:32:17 58° N 23:35:31 10° E visible
03 Jun -2.8 01:05:33 10° WNW 01:08:08 44° WSW 01:08:08 44° WSW visible
03 Jun -2.6 22:36:11 10° WNW 22:39:25 53° N 22:42:38 10° E visible
04 Jun -3.5 00:12:43 10° WNW 00:16:00 80° SSW 00:16:50 46° ESE visible
04 Jun -3.2 23:19:55 10° WNW 23:23:12 75° NNE 23:25:36 17° E visible
